EW9275 Weather Reports


Display with metric or nautical units.
time (UTC)temp
F
wind
direction
speed
MPH
gust
MPH
rain 1hr
in
rain 24hr
in
rain mn
in
humidity
%
barometer
mb
20260507070037 52 0.0 0.0 0.00 0.00 0.00 90 1022.0
20260507063016 53 0.0 0.0 0.00 0.00 0.00 88 1022.0
20260507060016 53 0.0 0.0 0.00 0.00 0.00 86 1022.0
20260507053039 53 0.0 0.0 0.00 0.00 0.00 86 1022.1
20260507050016 54 0.0 0.0 0.00 0.00 0.00 86 1022.0
20260507043015 54 0.0 0.0 0.00 0.00 0.00 88 1022.0
20260507040016 54 0.0 0.0 0.00 0.00 0.00 87 1021.8
20260507033016 55 0.0 0.0 0.00 0.00 0.00 86 1021.6
20260507030057 55 0.0 0.0 0.00 0.00 0.00 85 1021.3
20260507023036 55 0.0 0.0 0.00 0.00 0.00 84 1021.3
20260507020015 55 0.0 0.0 0.00 0.00 0.00 83 1021.2
20260507013015 56 0.0 0.0 0.00 0.00 0.00 83 1021.2
20260507010036 56 0.0 0.0 0.00 0.00 0.00 82 1021.3
20260507003015 56 0.0 1.0 0.00 0.00 0.00 80 1021.4
20260507000036 56 0.0 0.0 0.00 0.00 0.00 81 1021.4
20260506233015 56 0.0 1.0 0.00 0.00 0.00 82 1021.4
20260506230017 56 0.0 1.0 0.00 0.00 0.00 81 1021.5
20260506223017 56 0.0 1.0 0.00 0.00 0.00 81 1021.5
20260506220018 56 0.0 1.0 0.00 0.00 0.00 82 1021.8
20260506213017 56 0.0 2.0 0.00 0.00 0.00 85 1021.8
20260506210037 55 0.0 2.0 0.00 0.00 0.00 86 1021.8
20260506203017 55 0.0 1.0 0.00 0.00 0.00 86 1021.7
20260506200037 55 0.0 2.0 0.00 0.00 0.00 86 1021.6
20260506193018 55 0.0 2.0 0.00 0.00 0.00 87 1021.4
20260506190017 54 0.0 1.0 0.00 0.00 0.00 88 1021.5
20260506183017 54 0.0 1.0 0.00 0.00 0.00 89 1021.0
20260506180016 53 0.0 2.0 0.00 0.00 0.00 90 1021.2
20260506173016 53 0.0 1.0 0.00 0.00 0.00 91 1021.0
20260506170016 53 0.0 0.0 0.00 0.00 0.00 92 1020.9
20260506163018 52 0.0 1.0 0.00 0.00 0.00 92 1020.6
20260506160016 53 0.0 1.0 0.00 0.00 0.00 92 1020.8
20260506153016 52 0.0 0.0 0.00 0.00 0.00 92 1020.8
20260506150017 52 0.0 0.0 0.00 0.00 0.00 92 1020.7
20260506143017 52 0.0 1.0 0.00 0.00 0.00 92 1020.6
20260506140016 52 0.0 0.0 0.00 0.00 0.00 92 1020.8
20260506133018 52 0.0 0.0 0.00 0.00 0.00 92 1020.3
20260506130016 52 0.0 1.0 0.00 0.00 0.00 91 1020.1
20260506123016 53 0.0 0.0 0.00 0.00 0.00 91 1019.9
20260506120016 53 0.0 2.0 0.00 0.00 0.00 90 1019.7
20260506113016 54 0.0 1.0 0.00 0.00 0.00 90 1019.7
20260506110036 54 0.0 0.0 0.00 0.00 0.00 89 1019.5
20260506103016 55 0.0 0.0 0.00 0.00 0.00 89 1019.2
20260506100017 55 0.0 0.0 0.00 0.00 0.00 88 1018.7
20260506093016 55 0.0 0.0 0.00 0.00 0.00 89 1018.6
20260506090016 55 0.0 0.0 0.00 0.00 0.00 90 1018.4
20260506083016 55 0.0 0.0 0.00 0.00 0.00 90 1018.4
20260506073036 54 0.0 0.0 0.00 0.00 0.00 91 1018.0